Hoquiam, WA
on Saturday, February 23, 2013

Saturday
Previous Day Next Day
Daily Summary
 ActualAverageRecord
Temperature
Mean Temperature °F / °C 44°F / 7°C  
Max Temperature 46°F / 8°C 50°F / 10°C 64°F / 17°C (2005)
Min Temperature 39°F / 4°C 38°F / 3°C 29°F / -1°C (1960)
Degree Days
Heating Degree Days 22 21  
Month to date heating degree days 493  
Cooling Degree Days 0 0  
Month to date cooling degree days 0  
Year to date cooling degree days 0  
Moisture
Dew Point 36°F / 2°C   
Average Humidity 79    
Maximum Humidity 93    
Minimum Humidity 63    
Precipitation
Precipitation 0.20 in / 5.08 cm 0.25 in / 6.35 cm 2.76 in / 7.01 cm (1986)
Month to date precipitation 6.00  
Year to date precipitation 16.33  
Wind
Wind Speed 13 mph / 21 km/h   
Max Wind Speed 23 mph / 37 km/h   
Max Gust Speed 34 mph / 55 km/h   
Visibility 9 miles / 14 kilometers   
Events Rain   

Key: T is trace of precipitation, MM is missing value
Source: NWS Daily Summary
Time(PST)TemperatureDew PointHumidity Pressure Visibility Wind DirectionWind SpeedGust SpeedPrecipitationEvents Conditions
12:53 AM 43.0°F / 6.1°C 37.9°F / 3.3°C 82% 29.99 in / 1015.6 hPa 8.0 miles / 12.9 kilometers West 16.1 mph / 25.9 km/h 24.2 mph / 38.9 km/h 0.01 in / 0.3 cm Rain Light Rain
1:00 AM 42.8°F / 6.0°C 37.4°F / 3.0°C 81% 29.98 in / 1015.1 hPa 7.0 miles / 11.3 kilometers West 19.6 mph / 31.5 km/h 27.6 mph / 44.4 km/h 0.01 in / 0.3 cm Rain Light Rain
1:08 AM 42.8°F / 6.0°C 37.4°F / 3.0°C 81% 29.99 in / 1015.5 hPa 8.0 miles / 12.9 kilometers West 21.9 mph / 35.2 km/h 28.8 mph / 46.3 km/h 0.02 in / 0.5 cm Rain Light Rain
1:29 AM 42.8°F / 6.0°C 37.4°F / 3.0°C 81% 29.99 in / 1015.5 hPa 10.0 miles / 16.1 kilometers WSW 16.1 mph / 25.9 km/h - 0.03 in / 0.8 cm   Overcast
1:53 AM 43.0°F / 6.1°C 37.9°F / 3.3°C 82% 30.01 in / 1016.1 hPa 10.0 miles / 16.1 kilometers West 17.3 mph / 27.8 km/h - 0.03 in / 0.8 cm   Overcast
2:22 AM 44.6°F / 7.0°C 37.4°F / 3.0°C 76% 30.00 in / 1015.8 hPa 10.0 miles / 16.1 kilometers West 23.0 mph / 37.0 km/h 29.9 mph / 48.2 km/h 0.00 in / 0.0 cm   Mostly Cloudy
2:53 AM 42.1°F / 5.6°C 37.0°F / 2.8°C 82% 30.03 in / 1016.9 hPa 8.0 miles / 12.9 kilometers West 12.7 mph / 20.4 km/h 31.1 mph / 50.0 km/h 0.00 in / 0.0 cm Rain Light Rain
3:11 AM 39.2°F / 4.0°C 35.6°F / 2.0°C 87% 30.02 in / 1016.5 hPa 4.0 miles / 6.4 kilometers West 12.7 mph / 20.4 km/h 25.3 mph / 40.7 km/h 0.05 in / 1.3 cm Rain Light Rain
3:38 AM 42.8°F / 6.0°C 37.4°F / 3.0°C 81% 30.03 in / 1016.8 hPa 10.0 miles / 16.1 kilometers West 11.5 mph / 18.5 km/h 19.6 mph / 31.5 km/h 0.05 in / 1.3 cm   Overcast
3:53 AM 42.1°F / 5.6°C 37.0°F / 2.8°C 82% 30.05 in / 1017.5 hPa 8.0 miles / 12.9 kilometers West 18.4 mph / 29.6 km/h 25.3 mph / 40.7 km/h 0.06 in / 1.5 cm Rain Light Rain
4:53 AM 43.0°F / 6.1°C 37.0°F / 2.8°C 80% 30.07 in / 1018.2 hPa 7.0 miles / 11.3 kilometers West 23.0 mph / 37.0 km/h 34.5 mph / 55.6 km/h 0.00 in / 0.0 cm Rain Light Rain
5:39 AM 42.8°F / 6.0°C 35.6°F / 2.0°C 76% 30.08 in / 1018.5 hPa 10.0 miles / 16.1 kilometers West 13.8 mph / 22.2 km/h 28.8 mph / 46.3 km/h 0.01 in / 0.3 cm   Mostly Cloudy
5:50 AM 42.8°F / 6.0°C 35.6°F / 2.0°C 76% 30.09 in / 1018.8 hPa 10.0 miles / 16.1 kilometers West 12.7 mph / 20.4 km/h 20.7 mph / 33.3 km/h 0.01 in / 0.3 cm   Mostly Cloudy
5:53 AM 43.0°F / 6.1°C 35.1°F / 1.7°C 74% 30.10 in / 1019.3 hPa 10.0 miles / 16.1 kilometers West 10.4 mph / 16.7 km/h 20.7 mph / 33.3 km/h 0.01 in / 0.3 cm   Mostly Cloudy
6:53 AM 41.0°F / 5.0°C 35.1°F / 1.7°C 79% 30.13 in / 1020.3 hPa 10.0 miles / 16.1 kilometers WNW 8.1 mph / 13.0 km/h - 0.01 in / 0.3 cm   Overcast
7:53 AM 41.0°F / 5.0°C 36.0°F / 2.2°C 82% 30.17 in / 1021.4 hPa 9.0 miles / 14.5 kilometers WSW 3.5 mph / 5.6 km/h - 0.00 in / 0.0 cm   Mostly Cloudy
8:53 AM 44.1°F / 6.7°C 35.1°F / 1.7°C 71% 30.20 in / 1022.7 hPa 10.0 miles / 16.1 kilometers West 11.5 mph / 18.5 km/h - 0.00 in / 0.0 cm   Mostly Cloudy
9:53 AM 45.0°F / 7.2°C 35.1°F / 1.7°C 68% 30.23 in / 1023.7 hPa 10.0 miles / 16.1 kilometers West 16.1 mph / 25.9 km/h 24.2 mph / 38.9 km/h N/A   Mostly Cloudy
10:53 AM 42.1°F / 5.6°C 35.1°F / 1.7°C 76% 30.27 in / 1024.9 hPa 10.0 miles / 16.1 kilometers West 10.4 mph / 16.7 km/h - 0.01 in / 0.3 cm   Mostly Cloudy
11:53 AM 45.0°F / 7.2°C 37.0°F / 2.8°C 74% 30.29 in / 1025.6 hPa 10.0 miles / 16.1 kilometers WNW 9.2 mph / 14.8 km/h 17.3 mph / 27.8 km/h N/A   Mostly Cloudy
12:53 PM 44.1°F / 6.7°C 37.0°F / 2.8°C 76% 30.29 in / 1025.7 hPa 10.0 miles / 16.1 kilometers West 12.7 mph / 20.4 km/h - 0.03 in / 0.8 cm   Scattered Clouds
1:53 PM 46.9°F / 8.3°C 35.1°F / 1.7°C 63% 30.30 in / 1026.1 hPa 10.0 miles / 16.1 kilometers West 17.3 mph / 27.8 km/h 26.5 mph / 42.6 km/h N/A   Mostly Cloudy
2:53 PM 42.1°F / 5.6°C 36.0°F / 2.2°C 79% 30.34 in / 1027.2 hPa 4.0 miles / 6.4 kilometers NW 15.0 mph / 24.1 km/h 26.5 mph / 42.6 km/h 0.01 in / 0.3 cm Rain Light Rain
3:00 PM 44.6°F / 7.0°C 35.6°F / 2.0°C 71% 30.32 in / 1026.6 hPa 5.0 miles / 8.0 kilometers WNW 9.2 mph / 14.8 km/h 24.2 mph / 38.9 km/h 0.00 in / 0.0 cm Rain Light Rain
3:53 PM 46.9°F / 8.3°C 36.0°F / 2.2°C 66% 30.33 in / 1027.1 hPa 10.0 miles / 16.1 kilometers West 13.8 mph / 22.2 km/h - 0.00 in / 0.0 cm   Mostly Cloudy
4:53 PM 46.0°F / 7.8°C 34.0°F / 1.1°C 63% 30.35 in / 1027.5 hPa 10.0 miles / 16.1 kilometers West 13.8 mph / 22.2 km/h - N/A   Partly Cloudy
5:53 PM 45.0°F / 7.2°C 35.1°F / 1.7°C 68% 30.36 in / 1028.0 hPa 10.0 miles / 16.1 kilometers West 10.4 mph / 16.7 km/h - N/A   Scattered Clouds
6:53 PM 42.8°F / 6.0°C 35.6°F / 2.0°C 76% 30.36 in / 1028.0 hPa 10.0 miles / 16.1 kilometers WNW 3.5 mph / 5.6 km/h - N/A   Scattered Clouds
7:53 PM 42.8°F / 6.0°C 35.6°F / 2.0°C 76% 30.38 in / 1028.7 hPa 8.0 miles / 12.9 kilometers NW 5.8 mph / 9.3 km/h - N/A Rain Light Rain
8:00 PM 41.0°F / 5.0°C 35.6°F / 2.0°C 81% 30.38 in / 1028.7 hPa 10.0 miles / 16.1 kilometers Calm Calm - 0.00 in / 0.0 cm   Overcast
8:26 PM 41.0°F / 5.0°C 37.4°F / 3.0°C 87% 30.38 in / 1028.7 hPa 10.0 miles / 16.1 kilometers NW 6.9 mph / 11.1 km/h - 0.00 in / 0.0 cm   Overcast
8:43 PM 41.0°F / 5.0°C 37.4°F / 3.0°C 87% 30.38 in / 1028.7 hPa 10.0 miles / 16.1 kilometers Calm Calm - 0.00 in / 0.0 cm   Mostly Cloudy
8:53 PM 41.0°F / 5.0°C 37.0°F / 2.8°C 86% 30.40 in / 1029.2 hPa 10.0 miles / 16.1 kilometers WSW 3.5 mph / 5.6 km/h - 0.00 in / 0.0 cm   Mostly Cloudy
9:07 PM 41.0°F / 5.0°C 37.4°F / 3.0°C 87% 30.39 in / 1029.0 hPa 5.0 miles / 8.0 kilometers WSW 8.1 mph / 13.0 km/h - 0.02 in / 0.5 cm Rain Light Rain
9:50 PM 41.0°F / 5.0°C 37.4°F / 3.0°C 87% 30.39 in / 1029.0 hPa 10.0 miles / 16.1 kilometers NW 3.5 mph / 5.6 km/h - 0.03 in / 0.8 cm Rain Light Rain
9:53 PM 41.0°F / 5.0°C 37.9°F / 3.3°C 89% 30.40 in / 1029.5 hPa 10.0 miles / 16.1 kilometers WNW 3.5 mph / 5.6 km/h - 0.03 in / 0.8 cm   Overcast
10:53 PM 39.9°F / 4.4°C 37.9°F / 3.3°C 93% 30.40 in / 1029.5 hPa 10.0 miles / 16.1 kilometers Calm Calm - N/A   Overcast
11:53 PM 39.9°F / 4.4°C 37.9°F / 3.3°C 93% 30.41 in / 1029.6 hPa 8.0 miles / 12.9 kilometers Calm Calm - N/A   Overcast
Moon Phase
Feb. 23 Feb. 25 Mar. 04 Mar. 11 Mar. 19
Sunrise:07:05 AM (PST) Moon Rise:04:05 PM (PST)2/23
Sunset:05:52 PM (PST) Moon Set:05:36 AM (PST)2/23

Copyright © 2014 The Weather Underground, Inc.